Flag for U.S.A. Weather past 2 weeks in Anderson, South Carolina, U.S.A.

Now
38 °F

Clear.


Feels Like: 38 °F
Forecast: 40 / 69 °F
Wind: No wind

Location: Anderson County Airport

Current Time: Oct 23, 2014 at 6:26:16 AM

Latest Report: Oct 23, 2014 at 5:56 AM


Visibility: 10 mi

Pressure: 30.09 "Hg

Humidity: 97%

Dew point: 37 °F

Location of AndersonLocation

Historic Weather in Anderson — Graph

°F

Anderson temperature yesterday

Maximum temperature yesterday: 69 °F (at 3:56 PM)
Minimum temperature yesterday: 39 °F (at 6:56 AM)
Average temperature yesterday: 54 °F

Past Weeks' High & Low Weather Summary

 TemperatureHumidityPressure
High86 °F (Oct 8, 3:56 PM)100% (Oct 10, 3:59 AM)30.21 "Hg (Oct 10, 3:59 AM)
Low39 °F (Oct 22, 6:56 AM)30% (Oct 22, 3:56 PM)29.74 "Hg (Oct 14, 5:56 PM)
Average63 °F77%29.99 "Hg
* Reported Oct 8 4:56 AM — Oct 23 4:56 AM, Anderson, Weather by CustomWeather, © 2014

Note: Actual official high and low records may vary slightly from our data, if they occured in-between our weather recording intervals... More about our weather records

Advertising

Anderson weather history for previous 24 hours

 ConditionsComfort  
Time TempWeatherWind HumidityBarometerVisibility
4:56 AM
Oct 23
39 °FClear.No wind93%30.09 "Hg10 mi
3:56 AM39 °FClear.No wind93%30.09 "Hg10 mi
2:56 AM41 °FClear.No wind93%30.10 "Hg10 mi
1:56 AM42 °FClear.No wind89%30.10 "Hg10 mi
12:56 AM43 °FClear.No wind86%30.11 "Hg10 mi
11:56 PM
Oct 22
44 °FClear.6 mph85%30.11 "Hg10 mi
10:56 PM47 °FClear.No wind74%30.11 "Hg10 mi
9:56 PM53 °FClear.3 mph56%30.10 "Hg10 mi
8:56 PM55 °FClear.9 mph53%30.09 "Hg10 mi
7:56 PM57 °FClear.9 mph49%30.07 "Hg10 mi
6:56 PM61 °FSunny.9 mph41%30.06 "Hg10 mi
5:56 PM65 °FSunny.9 mph34%30.04 "Hg10 mi
4:56 PM68 °FSunny.7 mph31%30.03 "Hg10 mi
3:56 PM69 °FSunny.9 mph30%30.03 "Hg10 mi
2:56 PM68 °FSunny.7 mph33%30.05 "Hg10 mi
1:56 PM66 °FSunny.8 mph36%30.06 "Hg10 mi
12:56 PM65 °FSunny.9 mph37%30.09 "Hg10 mi
11:56 AM61 °FSunny.5 mph42%30.10 "Hg10 mi
10:56 AM58 °FSunny.8 mph47%30.09 "Hg10 mi
9:56 AM53 °FSunny.3 mph72%30.09 "Hg10 mi
8:56 AM47 °FSunny.No wind90%30.08 "Hg10 mi
7:56 AM40 °FClear.No wind97%30.06 "Hg10 mi
6:56 AM39 °FClear.No wind93%30.04 "Hg10 mi
Weather by CustomWeather, © 2014

See weather overviewHow to use our weather pages